Regional Weather Roundup
Issued by NWS San Angelo, TX

Home | Current Version | Previous Version | Text Only | Print | Product List | Glossary On
Versions: 1 2 3 4 5 6 7 8 9 10 11 12 13 14 15 16 17 18 19 20 21 22 23 24 25 26 27 28 29 30 31 32 33 34 35 36 37 38 39 40 41 42 43 44 45 46 47 48 49 50
000
ASUS44 KSJT 221710
RWRSJT
WEST CENTRAL TEXAS REGIONAL WEATHER ROUNDUP
NATIONAL WEATHER SERVICE SAN ANGELO TX
1200 PM CDT MON MAY 22 2017

NOTE: "FAIR" INDICATES FEW OR NO CLOUDS BELOW 12,000 FEET WITH NO
SIGNIFICANT WEATHER AND/OR OBSTRUCTIONS TO VISIBILITY.

TXZ049-054-064>066-071>073-076>078-098-099-113-114-127-128-139-140-
154-155-168>170-221800
...LOCATIONS ACROSS WEST CENTRAL TEXAS...

CITY           SKY/WX    TMP DP  RH WIND       PRES   REMARKS
SAN ANGELO     CLOUDY    65  59  81 E9        30.05F
ABILENE        CLOUDY    65  60  84 NE5       30.07F
DYESS AFB      CLOUDY    65  59  83 NE3       30.06F
JUNCTION       CLOUDY    64  62  93 E10       30.04F
SWEETWATER     CLOUDY    62  60  93 NE5       30.10F
BROWNWOOD      CLOUDY    64  59  82 NE9       30.07F HAZE
COLEMAN        CLOUDY    65  59  82 NE8       30.08F
SONORA         CLOUDY    66  63  88 E5        30.09R
OZONA            N/A     64  61  88 NE9       30.07F
BRADY          NOT AVBL
$$

TEXAS PANHANDLE/OKLAHOMA PANHANDLE

CITY           SKY/WX    TMP DP  RH WIND       PRES   REMARKS
AMARILLO       CLOUDY    65  50  58 S10       30.10F
BORGER         CLOUDY    64  52  64 S7        30.09F
CANADIAN       CLOUDY    58  57  94 CALM      30.08F
DALHART        CLOUDY    60  52  74 NW9       30.13F
DUMAS          CLOUDY    56  51  82 NW3       30.12R HAZE
GUYMON         NOT AVBL
HEREFORD       MOSUNNY   68  53  59 SW6       30.10F
PAMPA          CLOUDY    63  54  73 S10       30.10F
PERRYTON       CLOUDY    59  55  85 SW5       30.10S
$$

SOUTHERN PANHANDLE/SOUTH PLAINS/ROLLING PLAINS

CITY           SKY/WX    TMP DP  RH WIND       PRES   REMARKS
LUBBOCK        MOSUNNY   71  53  52 VRB3      30.07F
SNYDER         CLOUDY    64  57  77 SE9       30.06F
CHILDRESS      MOSUNNY   70  53  54 E7        30.07F
SEMINOLE       CLOUDY    62  56  79 CALM      30.09F
$$

PERMIAN BASIN

CITY           SKY/WX    TMP DP  RH WIND       PRES   REMARKS
MIDLAND        CLOUDY    62  57  83 SE7       30.06F HAZE
ODESSA         CLOUDY    65  59  81 SE10      30.06F
WINK             N/A     67  59  75 CALM      30.04F
$$

FAR WEST/SOUTHWEST MOUNTAINS/TRANS PECOS

CITY           SKY/WX    TMP DP  RH WIND       PRES   REMARKS
ALPINE         SUNNY     74  58  56 SW8       30.14F
DRYDEN           N/A     69  63  81 CALM      30.00F
EL PASO        MOSUNNY   78  48  34 SE3       30.04F
FORT STOCKTON  SUNNY     75  56  51 N6        30.04F
GUADALUPE PASS SUNNY     72  49  44 W8        30.14F
MARFA          MOSUNNY   66  57  72 VRB5      30.14F
PECOS          CLOUDY    68  57  68 CALM      30.05S
$$

DALLAS/FORT WORTH METROPLEX

CITY           SKY/WX    TMP DP  RH WIND       PRES   REMARKS
DFW AIRPORT    MOSUNNY   75  60  59 VRB6      30.05F
FTW MEACHAM    PTSUNNY   75  61  61 VRB7      30.05F
DAL-EXECUTIVE  MOSUNNY   73  61  65 NE8       30.06F
GRAND PRAIRIE  SUNNY     72  59  64 E7        30.08F
ADDISON        MOSUNNY   72  59  64 CALM      30.07F
MESQUITE       MOSUNNY   73  59  60 E9        30.06F
LANCASTER      CLOUDY    73  60  62 CALM      30.07S
$$

NORTH CENTRAL TEXAS

CITY           SKY/WX    TMP DP  RH WIND       PRES   REMARKS
SHRMAN/DENISON CLOUDY    73  60  64 CALM      30.08F
GAINESVILLE    CLOUDY    69  57  67 CALM      30.10F
BRIDGEPORT     MOSUNNY   72  57  58 SE5       30.09F
DENTON         CLOUDY    72  60  66 VRB6      30.07F
WAXAHACHIE     MOSUNNY   72  62  72 E6        30.07S
GRANBURY       CLOUDY    73  60  64 NE5       30.07F
$$

WESTERN NORTH TEXAS

CITY           SKY/WX    TMP DP  RH WIND       PRES   REMARKS
WICHITA FALLS  PTSUNNY   69  57  65 NE14      30.06F
VERNON         CLOUDY    67  53  59 SE3       30.08F
BRECKENRIDGE   CLOUDY    71  58  62 E7        30.07F HAZE
COMANCHE       CLOUDY    65  61  88 NE3       30.08F
$$

CENTRAL AND SOUTH CENTRAL TEXAS

CITY           SKY/WX    TMP DP  RH WIND       PRES   REMARKS
AUSTIN/BERGSTM CLOUDY    70  65  84 NE9       30.01S
WACO           CLOUDY    66  63  90 NE8       30.06R
HILLSBORO      CLOUDY    71  63  76 NE6       30.06R
TEMPLE         CLOUDY    69  64  84 N6        30.04S
KILLEEN-GRAY   CLOUDY    69  63  81 NE9       30.03S
FORT HOOD      NOT AVBL
GEORGETOWN     CLOUDY    70  63  78 NE8       30.02F
LAGO VISTA     CLOUDY    70  66  87 E9        30.03F
SAN MARCOS     CLOUDY    66  63  88 N10       30.02F FOG
NEW BRAUNFELS  CLOUDY    70  64  81 NE13      29.99F
RANDOLPH AFB   CLOUDY    71  68  92 NE9       29.99F
SAN ANTONIO    CLOUDY    70  64  81 NE10      30.00F
STINSON        CLOUDY    74  64  71 NE10      29.97F
PLEASANTON     NOT AVBL
LA GRANGE      CLOUDY    72  67  87 NE6       29.98F
GIDDINGS       CLOUDY    65  64  93 E10G16    30.01F
$$

EAST TEXAS

CITY           SKY/WX    TMP DP  RH WIND       PRES   REMARKS
PARIS          SUNNY     73  54  49 SE12G17   30.07F
CLARKSVILLE    NOT AVBL
TYLER          LGT RAIN  63  61  93 E8        30.06F
LONGVIEW       LGT RAIN  64  62  93 NE9       30.06R
PALESTINE      LGT RAIN  65  64  97 NE7       30.05S
NACOGDOCHES    CLOUDY   N/A N/A N/A E7        30.02S
$$

TEXAS HILL COUNTRY AND EDWARDS PLATEAU

CITY           SKY/WX    TMP DP  RH WIND       PRES   REMARKS
LLANO          PTSUNNY   73  63  68 CALM      30.06F
HORSESHOE BAY  NOT AVBL
KERRVILLE      CLOUDY    66  63  91 E5        30.03F
FREDERICKSBRG  CLOUDY    64  61  90 E8        30.04S
ROCKSPRINGS    CLOUDY    64  64 100 E8        30.05F
HONDO          CLOUDY    74  67  78 E10       29.99F
UVALDE         CLOUDY    71  66  83 NE13      29.99F
DEL RIO        CLOUDY    70  66  87 CALM      29.98S
$$

SOUTHEAST TEXAS

CITY           SKY/WX    TMP DP  RH WIND       PRES   REMARKS
COLLEGE STN    CLOUDY    67  66  97 NE10G21   30.00F
CALDWELL       NOT AVBL
CROCKETT       LGT RAIN  64  63  94 E8        30.04F
BRENHAM        DRIZZLE   67  67  97 NE7       30.00F
HUNTSVILLE     LGT RAIN  65  63  93 E8        30.00F FOG
CONROE         LGT RAIN  64  63  96 N8G18     29.99R FOG
HOUSTON BUSH   LGT RAIN  76  70  82 S12G17    29.94F
HOUSTON HOBBY  LGT RAIN  74  72  93 S13G22    29.94R
PERLAND        LGT RAIN  76  72  87 SE16G23   29.95F
WHARTON        CLOUDY    78  70  76 S5        29.97R
$$

THE UPPER TEXAS COAST

CITY           SKY/WX    TMP DP  RH WIND       PRES   REMARKS
ORANGE         LGT RAIN  73  72  96 MISG      29.98F
PORT ARTHUR    LGT RAIN  73  71  93 SE12      29.94F
GALVESTON      RAIN      76  73  91 MISG      29.97R FOG
ANGLETON       LGT RAIN  76  74  93 E6        29.95F
BAY CITY       CLOUDY    77  74  89 S12       29.94F
$$

TEXAS COASTAL BEND, RIO GRANDE PLAINS DEEP SOUTH TEXAS

CITY           SKY/WX    TMP DP  RH WIND       PRES   REMARKS
VICTORIA       CLOUDY    79  71  76 N7        29.94F
BEEVILLE       PTSUNNY   80  72  76 NE8       29.94F
ROCKPORT       CLOUDY    79  72  79 SE10      29.93R
PORT ARANSAS   CLOUDY    77  73  87 SE15      29.92F FOG
PORT LAVACA    PTSUNNY   81  75  83 CALM      29.94S
CORPUS CHRISTI LGT RAIN  78  76  93 E6        29.91F
KINGSVILLE NAS LGT RAIN  76  76 100 NE5       29.92F
COTULLA        CLOUDY    74  66  76 E9        29.96F
LAREDO         CLOUDY    74  69  85 NE8       29.95
BROWNSVILLE    PTSUNNY   93  74  53 S16       29.88F
PORT ISABEL    PTSUNNY   90  75  61 S15G21    29.87F
HEBBRONVILLE   PTSUNNY   76  66  71 E10       29.95F
MCALLEN        MOSUNNY   92  75  57 S10       29.88F
WESLACO        PTSUNNY   90  74  59 S12       29.87F
FALFURRIAS     CLOUDY    73  72  96 N5        29.93F
EDINBURG       CLOUDY    84  72  67 N13       29.90S
$$



USA.gov is the U.S. government's official web portal to all federal, state and local government web resources and services.